TURKSAT 4A

Last updated on Tue Sep 15 2026 00:03:10 GMT+0000 (Coordinated Universal Time)

1 39522U 14007A 26257.58342105 .00000138 00000+0 00000+0 0 9993 2 39522 0.0750 287.1872 0003391 317.5165 0.8807 1.00270547 45866
UTC large
Height (km)
Speed (km/s)
/
Latitude / Longitude
Inclination (degrees)
Orbital Period (minutes)
Azimuth
Elevation
Range (km)
Doppler Factor

Next 0 passes for location: London (51.5072 / 0.1276)

No passes found over London.
TURKSAT 4A